Regional Weather Roundup
Issued by NWS Newport/Morehead, NC

Current Version | Previous Version | Text Only | Print | Product List | Glossary Off
Versions: 1 2 3 4 5 6 7 8 9 10 11 12 13 14 15 16 17 18 19 20 21 22 23 24 25 26 27 28 29 30 31 32 33 34 35 36 37 38 39 40 41 42 43 44 45 46 47 48 49 50

000
ASUS42 KMHX 280322
RWRMHX
WEATHER ROUNDUP FOR EASTERN NORTH CAROLINA
NATIONAL WEATHER SERVICE NEWPORT/MOREHEAD CITY NC
1000 PM EST TUE JAN 27 2015

NOTE: "FAIR" INDICATES FEW OR NO CLOUDS BELOW 12,000 FEET
WITH NO SIGNIFICANT WEATHER AND/OR OBSTRUCTIONS TO VISIBILITY

NCZ015>017-031-032-045>047-102-103-280400-
NORTH COAST

CITY           SKY/WX    TMP DP  RH WIND       PRES   REMARKS
EDENTON        CLOUDY    35  30  83 NW8       29.92R
ELIZABETH CITY CLOUDY    34  28  79 NW9       29.90R
KITTY HAWK     CLOUDY    35  30  82 NW8       29.87R
MANTEO         CLOUDY    36  28  75 NW10G17   29.89R

$$

NCZ045>047-081-094-103-104-280400-
CENTRAL COAST

CITY           SKY/WX    TMP DP  RH WIND       PRES   REMARKS
FRISCO         CLOUDY    36  30  79 N12G21    29.88R
SWANQUARTER    NOT AVBL

$$

NCZ095-097-098-100-101-280400-
SOUTHERN COAST

CITY           SKY/WX    TMP DP  RH WIND       PRES   REMARKS
BEAUFORT       CLOUDY    37  30  75 NW10      29.92R
CEDAR ISLAND   NOT AVBL
JACKSONVILLE   CLEAR     29  27  92 CALM      29.93R
PINEY ISLAND     N/A    N/A N/A N/A MISG      29.91R
WILMINGTON     CLEAR     30  27  88 CALM      29.93S


$$

NCZ011>013-027>030-043-044-078>080-089-090>093-098-280400-
COASTAL PLAIN

CITY           SKY/WX    TMP DP  RH WIND       PRES   REMARKS
AHOSKIE        MOCLDY    33  29  84 CALM      29.93R
CLINTON        CLEAR     29  29  97 NW3       29.94R
ELIZABETHTOWN  CLEAR     36  20  53 W6        29.95R
GOLDSBORO      CLEAR     29  28  98 CALM      29.91R
GREENVILLE     MOCLDY    32  30  93 CALM      29.95R
HAVELOCK       PTCLDY    34  27  75 NW5       29.93R
KENANSVILLE    CLEAR     27  26  94 CALM      29.94R
KINSTON        CLEAR     27  26  96 CALM      29.93S
NEW BERN       MOCLDY    35  27  72 NW5       29.93R
RICHLANDS      CLEAR     27  25  93 CALM      29.94R
ROCKY MOUNT    CLEAR     29  25  85 CALM      29.94R
WASHINGTON     CLOUDY    35  29  79 CALM      29.93R
WHITEVILLE     CLEAR     32  24  73 CALM      29.94R

$$

AMZ130-135-150-152-154-156-158-170-250-252-270-ANZ085-086-088-633-658-670-280400-
MARINE OBSERVATIONS

STATION/POSITION TIME  TEMP    WIND        PRES    WAVE   SWELL
                       AIR SEA DIR/SP/G            HT/PER HT/PER
                 (UTC) (F)     (DEG/KT/KT) (MB)    (FT/S) (FT/S)
CHESAPEAKE LIGHT 0300   34     330/ 25/ 28 1012.3
64 E VA BEACH    0300   39 53  330/ 23/ 29 1009.6   13/13  11/13
DUCK             0300   35 43  320/ 16/ 20 1011.1
2 E DUCK         0300      43                N/A     7/13   5/13
10 NE DUCK       0300      45                N/A     9/13   5/13
OREGON INLET     0300   36 44  320/ 14/ 19 1011.6
13E OREGON INLT  0300      46                N/A     9/12   7/12
HATTERAS CG      0300   38 47  330/ 17/ 20 1012.3
DIAMOND BUOY     0300   40 69  330/ 19/ 23 1011.1    9/14   7/14
17 S OCRACOKE    NOT AVBL
CAPE LOOKOUT     0300   39     320/ 11/ 13 1012.9
BEAUFORT LAB     0300   37 48  320/  5/  8 1012.1
27 SE WRIGHTSVLE NOT AVBL
5 SE WRIGHTSVLE  0300   43 53  300/  8/ 10 1013.7
225 S CAPE HAT   0248   57 71  310/ 25/ 33 1009.9   13/ 8   5/12
41 SE CHARLESTON 0300   50 67  310/ 16/ 19 1014.7    4/ 5   2/ 9

$$



USA.gov is the U.S. government's official web portal to all federal, state and local government web resources and services.